Weather History for KUAO - December, 2013

Change the Weather History Date:

Wednesday, December 18, 2013

  Actual Average Record
Temperature  
Mean Temperature 37 °F -  
Max Temperature 41 °F - 55 °F (2004)
Min Temperature 30 °F - 26 °F (2006)
Degree Days  
Heating Degree Days 29    
Month to date heating degree days 574  
Since 1 July heating degree days 1692  
Cooling Degree Days 0    
Month to date cooling degree days 0  
Year to date cooling degree days 426  
Moisture  
Dew Point 37 °F    
Average Humidity 93    
Maximum Humidity 100    
Minimum Humidity 85    
Precipitation  
Precipitation 0.08 in - 0.82 in (1951)
Month to date precipitation 1.70  
Year to date precipitation 26.95  
Sea Level Pressure  
Sea Level Pressure 30.15 in    
Wind  
Wind Speed 1 mph (NW)    
Max Wind Speed 9 mph    
Max Gust Speed 12 mph    
Visibility 5 miles    
Events Fog , Rain    
T = Trace of Precipitation, MM = Missing Value Source: NWS Daily Summary

Daily Weather History Graph

Daily Weather History Graph

Search for Another Location

Airport or City:

Trip Planner

Search our weather history database for the weather conditions in past years. The results will help you decide how hot, cold, wet, or windy it might be!

Date:

Astronomy

Dec. 18, 2013 Rise Set
Actual Time 7:45 AM PST 4:30 PM PST
Civil Twilight 7:11 AM PST 5:04 PM PST
Nautical Twilight 6:34 AM PST 5:41 PM PST
Astronomical Twilight 5:58 AM PST 6:17 PM PST
Moon 6:11 PM PST (12/18) 8:25 AM PST (12/18)
Length of Visible Light 9h 52m
Length of Day
8h 44m
Full, 98% of the Moon is Illuminated
Dec 18
Full
Dec 25
Last Quarter
Jan 1
New
Jan 7
First Quarter
Jan 15
Full

Hourly Weather History & Observations

Time (PST) Temp. Windchill Dew Point Humidity Pressure Visibility Wind Dir Wind Speed Gust Speed Precip Events Conditions
12:53 AM 36.0 °F - 36.0 °F 100% 30.20 in 0.2 mi Calm Calm - N/A Fog Fog
1:27 AM 36.0 °F - 36.0 °F 100% 30.19 in 0.5 mi Calm Calm - N/A Fog Fog
1:53 AM 36.0 °F - 36.0 °F 100% 30.20 in 0.5 mi Calm Calm - N/A Fog Fog
2:09 AM 36.0 °F - 36.0 °F 100% 30.19 in 0.2 mi Calm Calm - N/A Fog Fog
2:30 AM 36.0 °F - 36.0 °F 100% 30.19 in 0.5 mi Calm Calm - N/A Fog Fog
2:53 AM 36.0 °F - 36.0 °F 100% 30.20 in 0.5 mi Calm Calm - N/A Fog Fog
3:53 AM 36.0 °F - 36.0 °F 100% 30.18 in 0.5 mi Calm Calm - N/A Fog Fog
4:53 AM 36.0 °F - 36.0 °F 100% 30.18 in 0.5 mi Calm Calm - N/A Fog Fog
5:42 AM 36.0 °F - 36.0 °F 100% 30.16 in 0.2 mi Calm Calm - N/A Fog Fog
5:53 AM 36.0 °F - 36.0 °F 100% 30.17 in 0.5 mi Calm Calm - N/A Fog Fog
6:00 AM 36.0 °F - 36.0 °F 100% 30.16 in 2.5 mi Calm Calm - N/A   Overcast
6:07 AM 36.0 °F - 36.0 °F 100% 30.16 in 4.0 mi Calm Calm - N/A   Overcast
6:36 AM 36.0 °F - 36.0 °F 100% 30.16 in 1.8 mi Calm Calm - N/A   Overcast
6:48 AM 37.4 °F - 35.6 °F 93% 30.16 in 0.5 mi Calm Calm - N/A Fog Fog
6:53 AM 37.0 °F - 36.0 °F 96% 30.17 in 0.2 mi Calm Calm - N/A Fog Fog
7:31 AM 37.0 °F - 36.0 °F 96% 30.16 in 0.5 mi Calm Calm - N/A Fog Fog
7:53 AM 37.0 °F - 37.0 °F 100% 30.16 in 1.0 mi Calm Calm - 0.00 in   Mist
8:05 AM 37.0 °F - 37.0 °F 100% 30.15 in 0.8 mi Calm Calm - N/A   Overcast
8:18 AM 37.0 °F - 37.0 °F 100% 30.15 in 1.2 mi Calm Calm - 0.01 in   Overcast
8:25 AM 37.0 °F - 37.0 °F 100% 30.16 in 1.2 mi Calm Calm - 0.01 in   Overcast
8:53 AM 37.0 °F 33.3 °F 37.0 °F 100% 30.15 in 1.2 mi SSE 4.6 mph - 0.01 in   Overcast
9:13 AM 37.0 °F - 37.0 °F 100% 30.15 in 2.5 mi Calm Calm - N/A   Overcast
9:36 AM 37.0 °F - 37.0 °F 100% 30.15 in 3.0 mi Calm Calm - N/A   Overcast
9:53 AM 37.0 °F - 37.0 °F 100% 30.17 in 9.0 mi Calm Calm - N/A   Overcast
10:23 AM 37.0 °F - 37.0 °F 100% 30.16 in 10.0 mi Calm Calm - N/A   Overcast
10:33 AM 37.0 °F - 37.0 °F 100% 30.15 in 10.0 mi Calm Calm - N/A   Overcast
10:46 AM 37.9 °F - 37.0 °F 97% 30.15 in 8.0 mi Calm Calm - N/A   Overcast
10:53 AM 37.0 °F - 37.0 °F 100% 30.16 in 10.0 mi Calm Calm - N/A   Overcast
11:42 AM 39.0 °F - 37.9 °F 96% 30.13 in 10.0 mi Calm Calm - N/A   Overcast
11:53 AM 39.0 °F - 37.9 °F 96% 30.13 in 10.0 mi Calm Calm - N/A   Overcast
12:53 PM 39.9 °F - 37.9 °F 93% 30.10 in 10.0 mi Calm Calm - N/A   Overcast
1:53 PM 39.9 °F - 39.0 °F 97% 30.09 in 8.0 mi Calm Calm - 0.00 in   Overcast
2:53 PM 41.0 °F - 39.0 °F 93% 30.08 in 10.0 mi Calm Calm - N/A   Overcast
3:53 PM 41.0 °F - 39.0 °F 93% 30.09 in 8.0 mi Calm Calm - N/A   Overcast
4:53 PM 39.9 °F - 39.0 °F 97% 30.09 in 5.0 mi Calm Calm - 0.02 in Rain Light Rain
5:20 PM 39.9 °F 37.8 °F 39.0 °F 97% 30.09 in 3.0 mi WNW 3.5 mph - 0.04 in Rain Light Rain
5:49 PM 39.2 °F - 39.2 °F 100% 30.08 in 4.0 mi Calm Calm - 0.05 in   Overcast
5:53 PM 39.9 °F - 39.0 °F 97% 30.09 in 4.0 mi Calm Calm - 0.05 in   Overcast
6:53 PM 39.9 °F 35.8 °F 37.0 °F 89% 30.09 in 10.0 mi NNW 5.8 mph - 0.00 in Rain Light Rain
7:53 PM 37.9 °F - 35.1 °F 89% 30.11 in 10.0 mi Calm Calm - 0.00 in   Mostly Cloudy
8:53 PM 37.0 °F 34.5 °F 34.0 °F 89% 30.14 in 10.0 mi NNW 3.5 mph - N/A   Overcast
9:53 PM 35.1 °F 32.2 °F 33.1 °F 92% 30.14 in 10.0 mi WNW 3.5 mph - N/A   Clear
10:53 PM 33.1 °F - 30.9 °F 92% 30.17 in 10.0 mi Calm Calm - N/A   Clear
11:53 PM 30.0 °F - 30.0 °F 100% 30.17 in 7.0 mi Calm Calm - N/A   Clear